Weather History for KMHT - May, 2013

Change the Weather History Date:

Thursday, May 16, 2013

  Actual Average Record
Temperature  
Mean Temperature 63 °F -  
Max Temperature 80 °F 69 °F 88 °F (1951)
Min Temperature 46 °F 48 °F 30 °F (1949)
Degree Days  
Heating Degree Days 2    
Cooling Degree Days 0    
Growing Degree Days 13 (Base 50)    
Moisture  
Dew Point 39 °F    
Average Humidity 48    
Maximum Humidity 93    
Minimum Humidity 17    
Precipitation  
Precipitation 0.00 in 0.13 in 2.26 in (1954)
Month to date precipitation 1.85  
Year to date precipitation 15.84  
Snow  
Snow 0.00 in - - ()
Month to date snowfall  
Since 1 July snowfall  
Snow Depth -    
Sea Level Pressure  
Sea Level Pressure 29.69 in    
Wind  
Wind Speed 6 mph (West)    
Max Wind Speed 23 mph    
Max Gust Speed 31 mph    
Visibility 9 miles    
Events Fog    
T = Trace of Precipitation, MM = Missing Value Source: NWS Daily Summary

Daily Weather History Graph

Daily Weather History Graph

Search for Another Location

Airport or City:

Trip Planner

Search our weather history database for the weather conditions in past years. The results will help you decide how hot, cold, wet, or windy it might be!

Date:

Astronomy

May. 16, 2013 Rise Set
Actual Time 5:21 AM EDT 8:03 PM EDT
Civil Twilight 4:48 AM EDT 8:36 PM EDT
Nautical Twilight 4:07 AM EDT 9:17 PM EDT
Astronomical Twilight 3:20 AM EDT 10:04 PM EDT
Moon 10:54 AM EDT (5/16) 12:20 AM EDT (5/16)
Length of Visible Light 15h 47m
Length of Day
14h 41m
Waxing Crescent, 35% of the Moon is Illuminated
May 16
Waxing Crescent
May 18
First Quarter
May 25
Full
May 31
Last Quarter
Jun 8
New

Hourly Weather History & Observations

Time (EDT) Temp. Dew Point Humidity Pressure Visibility Wind Dir Wind Speed Gust Speed Precip Events Conditions
12:53 AM 54.0 °F 50.0 °F 86% 29.67 in 10.0 mi Calm Calm - N/A   Clear
1:53 AM 52.0 °F 50.0 °F 93% 29.67 in 9.0 mi SSE 3.5 mph - N/A   Clear
2:53 AM 51.1 °F 48.9 °F 92% 29.67 in 3.0 mi Calm Calm - N/A   Clear
3:53 AM 48.0 °F 46.0 °F 93% 29.66 in 2.0 mi Calm Calm - N/A   Clear
4:13 AM 46.4 °F 44.6 °F 93% 29.62 in 1.0 mi Calm Calm - N/A   Scattered Clouds
4:53 AM 46.0 °F 44.1 °F 93% 29.67 in 5.0 mi Calm Calm - N/A Fog Patches of Fog
5:53 AM 46.0 °F 44.1 °F 93% 29.68 in 10.0 mi Calm Calm - N/A   Clear
6:53 AM 51.1 °F 45.0 °F 80% 29.69 in 10.0 mi SSW 3.5 mph - N/A   Clear
7:53 AM 57.9 °F 46.9 °F 67% 29.71 in 10.0 mi Calm Calm - N/A   Clear
8:53 AM 64.0 °F 41.0 °F 43% 29.70 in 10.0 mi West 10.4 mph - N/A   Clear
9:53 AM 68.0 °F 39.0 °F 35% 29.70 in 10.0 mi West 10.4 mph - N/A   Clear
10:53 AM 72.0 °F 36.0 °F 27% 29.70 in 10.0 mi WSW 11.5 mph 19.6 mph N/A   Clear
11:53 AM 75.0 °F 33.1 °F 22% 29.69 in 10.0 mi WSW 15.0 mph 20.7 mph N/A   Clear
12:53 PM 77.0 °F 30.0 °F 18% 29.66 in 10.0 mi WNW 13.8 mph 29.9 mph N/A   Partly Cloudy
1:53 PM 79.0 °F 32.0 °F 18% 29.65 in 10.0 mi WNW 11.5 mph 25.3 mph N/A   Partly Cloudy
2:53 PM 79.0 °F 33.1 °F 19% 29.65 in 10.0 mi West 12.7 mph 26.5 mph N/A   Partly Cloudy
3:53 PM 80.1 °F 33.1 °F 18% 29.65 in 10.0 mi West 13.8 mph 31.1 mph N/A   Partly Cloudy
4:53 PM 80.1 °F 32.0 °F 17% 29.65 in 10.0 mi West 18.4 mph 28.8 mph N/A   Partly Cloudy
5:53 PM 79.0 °F 30.9 °F 17% 29.65 in 10.0 mi West 17.3 mph 27.6 mph N/A   Partly Cloudy
6:53 PM 77.0 °F 32.0 °F 19% 29.67 in 10.0 mi West 10.4 mph 20.7 mph N/A   Partly Cloudy
7:53 PM 75.0 °F 33.1 °F 22% 29.69 in 10.0 mi WSW 6.9 mph - N/A   Partly Cloudy
8:53 PM 73.0 °F 30.0 °F 20% 29.73 in 10.0 mi West 6.9 mph - N/A   Partly Cloudy
9:53 PM 69.1 °F 35.1 °F 29% 29.78 in 10.0 mi North 16.1 mph - N/A   Clear
10:04 PM 66.2 °F 37.4 °F 35% 29.76 in 10.0 mi NNW 23.0 mph 26.5 mph N/A   Clear
10:53 PM 62.1 °F 41.0 °F 46% 29.82 in 10.0 mi North 12.7 mph 25.3 mph N/A   Clear
11:53 PM 59.0 °F 39.9 °F 49% 29.85 in 10.0 mi North 12.7 mph - N/A   Clear